Dobrodošli na spletni strani vremenske postaje Senovo. Vse informacije so informativnega značaja, saj vremenska postaja ni del državne mreže meteoroloških postaj. OBVESTILO: Letni količini padavin navedeni na spletni strani je potrebno prišteti 98,1 mm, zaradi izgube podatkov.


Dež Od: 15-12-2017 00:00 Do: 23:59 Opozorilo za: Dež Stopnja: Rumena info button
Veter Od: 15-12-2017 00:00 Do: 17:59 Opozorilo za: Veter Stopnja: Rumena info button

Pogled proti Armezu več informacij Pogled proti Armezu


Lisca več informacij Lisca


Radar strel več informacij blitzortung!


opozorilo za Dež več informacij rain snow radar


Obiščite še:

Template documentation
and downloads

And another site



Weather Underground, zgodovina - Tekstovno

Dnevni povzetek za Avgust 20, 2017 Enote:  Metrično    Angleško   Obe
« Predhodni Dan
Naslednji Dan »
Dnevni Tedenski Mesečni Letni Po meri
  Višja: Nižja: Povprečje:
Temperatura: 24.6 °C 12.8 °C 18.1 °C
Točka rosišča: 16.7 °C 8.5 °C 12.6 °C
Vlažnost: 95 % 41 % 73 %
Hitrost vetra: 10.0 km/h 0.0 km/h 3.5 km/h
Sunki vetra: 21.9 km/h - -
Veter:- - SSE
Zračni tlak: 1021.9 hPa 1016.8 hPa -
Padavine: 9.9 mm    
Historical Graphs
 
 
Tabelarni podarki za Avgust 20, 2017
Čas Temperatura Točka rosišča Zračni tlak Veter Hitrost vetra Sunki vetra Vlažnost Intenziteta padavin (urna)
00:01 17.8 °C 13.7 °C 1019.9 hPa WNW 4.0 km/h 8.7 km/h 77 % 2.5 mm
00:06 17.5 °C 14.0 °C 1019.9 hPa SW 3.9 km/h 9.3 km/h 80 % 3.0 mm
00:11 17.3 °C 14.2 °C 1019.9 hPa SSE 3.7 km/h 9.3 km/h 82 % 3.8 mm
00:16 17.2 °C 13.9 °C 1019.9 hPa SSE 3.7 km/h 10.5 km/h 81 % 4.3 mm
00:21 17.0 °C 13.9 °C 1019.9 hPa SSE 4.8 km/h 10.5 km/h 82 % 4.8 mm
00:26 16.9 °C 14.0 °C 1019.9 hPa SE 3.5 km/h 7.9 km/h 83 % 5.1 mm
00:32 16.7 °C 13.8 °C 1019.9 hPa East 2.7 km/h 6.9 km/h 83 % 5.1 mm
00:37 16.6 °C 13.5 °C 1018.8 hPa ENE 5.6 km/h 16.6 km/h 82 % 5.3 mm
00:42 16.5 °C 13.2 °C 1018.8 hPa ENE 7.1 km/h 16.6 km/h 81 % 5.3 mm
00:47 16.5 °C 13.4 °C 1018.8 hPa East 6.9 km/h 16.6 km/h 82 % 5.3 mm
00:52 16.5 °C 13.4 °C 1018.2 hPa East 7.4 km/h 16.6 km/h 82 % 4.6 mm
00:57 16.4 °C 13.1 °C 1018.2 hPa East 7.4 km/h 15.4 km/h 81 % 3.6 mm
01:02 16.4 °C 13.1 °C 1018.2 hPa ESE 6.3 km/h 12.2 km/h 81 % 2.8 mm
01:07 16.4 °C 13.1 °C 1018.8 hPa ESE 5.0 km/h 11.9 km/h 81 % 2.3 mm
01:12 16.3 °C 13.2 °C 1018.8 hPa ESE 6.1 km/h 13.7 km/h 82 % 1.8 mm
01:17 16.2 °C 13.1 °C 1018.8 hPa ESE 8.2 km/h 13.7 km/h 82 % 1.0 mm
01:22 16.3 °C 13.2 °C 1018.8 hPa East 8.7 km/h 21.9 km/h 82 % 0.8 mm
01:24 16.3 °C 13.1 °C 1018.8 hPa East 8.2 km/h 21.9 km/h 81 % 0.5 mm
01:29 16.2 °C 12.9 °C 1018.8 hPa ENE 7.6 km/h 21.9 km/h 81 % 0.3 mm
01:34 16.2 °C 12.9 °C 1018.8 hPa ENE 7.7 km/h 16.6 km/h 81 % 0.3 mm
01:39 16.2 °C 12.9 °C 1018.8 hPa East 7.9 km/h 16.6 km/h 81 % 0.3 mm
01:44 16.1 °C 12.8 °C 1018.8 hPa East 7.1 km/h 21.9 km/h 81 % 0.3 mm
01:49 16.1 °C 12.8 °C 1016.8 hPa East 7.6 km/h 21.9 km/h 81 % 0.3 mm
01:54 16.1 °C 12.8 °C 1016.8 hPa ESE 6.6 km/h 21.9 km/h 81 % 0.3 mm
01:55 16.1 °C 12.8 °C 1016.8 hPa ESE 6.3 km/h 14.0 km/h 81 % 0.3 mm
02:00 16.1 °C 12.8 °C 1016.8 hPa ESE 5.8 km/h 11.9 km/h 81 % 0.5 mm
02:05 16.0 °C 12.7 °C 1018.2 hPa ESE 5.3 km/h 11.9 km/h 81 % 0.5 mm
02:10 15.9 °C 12.8 °C 1018.2 hPa SE 4.8 km/h 9.7 km/h 82 % 1.0 mm
02:15 15.8 °C 12.9 °C 1018.2 hPa SW 5.6 km/h 10.1 km/h 83 % 1.3 mm
02:20 15.6 °C 12.9 °C 1019.9 hPa SW 6.3 km/h 10.1 km/h 84 % 1.8 mm
02:21 15.6 °C 12.9 °C 1019.9 hPa SW 6.1 km/h 10.1 km/h 84 % 2.0 mm
02:26 15.4 °C 12.7 °C 1019.9 hPa WSW 5.5 km/h 10.1 km/h 84 % 2.3 mm
02:31 15.3 °C 12.9 °C 1019.9 hPa West 3.4 km/h 10.1 km/h 86 % 3.0 mm
02:36 15.3 °C 12.9 °C 1019.9 hPa SSW 1.9 km/h 7.2 km/h 86 % 3.8 mm
02:41 15.2 °C 13.1 °C 1019.9 hPa SSW 1.8 km/h 4.0 km/h 87 % 3.8 mm
02:46 15.2 °C 13.2 °C 1019.9 hPa ESE 1.3 km/h 5.8 km/h 88 % 3.8 mm
02:51 15.1 °C 13.1 °C 1018.8 hPa ENE 1.9 km/h 5.8 km/h 88 % 4.3 mm
02:56 15.1 °C 13.3 °C 1018.8 hPa ESE 2.6 km/h 5.8 km/h 89 % 4.3 mm
03:01 15.1 °C 13.3 °C 1018.8 hPa SE 3.1 km/h 6.4 km/h 89 % 4.3 mm
03:06 15.1 °C 13.3 °C 1018.8 hPa ESE 6.1 km/h 12.6 km/h 89 % 4.3 mm
03:11 15.2 °C 13.4 °C 1018.8 hPa SE 7.4 km/h 16.3 km/h 89 % 4.3 mm
03:16 15.2 °C 13.4 °C 1018.8 hPa South 8.0 km/h 16.9 km/h 89 % 4.3 mm
03:21 15.2 °C 13.4 °C 1018.8 hPa SSW 9.3 km/h 16.9 km/h 89 % 3.8 mm
03:26 15.1 °C 13.4 °C 1018.8 hPa SSW 8.5 km/h 13.0 km/h 90 % 3.8 mm
03:31 15.1 °C 13.4 °C 1018.8 hPa SW 8.7 km/h 13.7 km/h 90 % 3.0 mm
03:36 15.0 °C 13.4 °C 1019.9 hPa West 8.2 km/h 13.7 km/h 90 % 2.5 mm
03:37 15.0 °C 13.4 °C 1019.9 hPa West 8.2 km/h 13.7 km/h 90 % 2.5 mm
03:42 14.9 °C 13.4 °C 1019.9 hPa West 5.3 km/h 13.7 km/h 91 % 2.5 mm
03:47 14.9 °C 13.4 °C 1019.9 hPa SW 4.3 km/h 9.0 km/h 91 % 2.5 mm
03:52 14.9 °C 13.4 °C 1019.9 hPa SSW 4.8 km/h 9.0 km/h 91 % 2.3 mm
03:57 14.8 °C 13.3 °C 1019.9 hPa SW 4.2 km/h 7.9 km/h 91 % 2.3 mm
04:02 14.8 °C 13.3 °C 1019.9 hPa West 4.0 km/h 6.1 km/h 91 % 1.8 mm
04:07 14.8 °C 13.3 °C 1019.9 hPa WSW 4.0 km/h 6.1 km/h 91 % 1.5 mm
04:12 14.7 °C 13.4 °C 1019.9 hPa SSW 3.2 km/h 5.0 km/h 92 % 1.3 mm
04:17 14.7 °C 13.2 °C 1019.9 hPa SSE 2.1 km/h 5.0 km/h 91 % 1.0 mm
04:22 14.7 °C 13.4 °C 1018.8 hPa WSW 1.3 km/h 5.8 km/h 92 % 0.8 mm
04:27 14.7 °C 13.4 °C 1018.8 hPa West 2.3 km/h 5.8 km/h 92 % 0.5 mm
04:32 14.7 °C 13.4 °C 1018.8 hPa West 1.8 km/h 5.5 km/h 92 % 0.3 mm
04:37 14.7 °C 13.4 °C 1020.9 hPa NW 1.1 km/h 5.8 km/h 92 % 0.3 mm
04:42 14.7 °C 13.6 °C 1020.9 hPa NNW 1.1 km/h 5.8 km/h 93 % 0.3 mm
04:47 14.7 °C 13.6 °C 1020.9 hPa SE 0.2 km/h 3.2 km/h 93 % 0.3 mm
04:52 14.7 °C 13.6 °C 1018.8 hPa South 0.5 km/h 3.2 km/h 93 % 0.3 mm
04:57 14.7 °C 13.6 °C 1018.8 hPa SSW 0.8 km/h 3.5 km/h 93 % 0.3 mm
05:02 14.7 °C 13.6 °C 1018.8 hPa SSW 0.6 km/h 3.5 km/h 93 % 0.3 mm
05:07 14.7 °C 13.6 °C 1018.8 hPa North 0.2 km/h   93 % 0.3 mm
05:13 14.6 °C 13.5 °C 1018.8 hPa Calm     93 % 0.3 mm
05:18 14.7 °C 13.6 °C 1018.2 hPa SSE 1.6 km/h 9.0 km/h 93 % 0.3 mm
05:19 14.6 °C 13.5 °C 1018.2 hPa SSE 1.9 km/h 9.0 km/h 93 % 0.3 mm
05:23 14.6 °C 13.5 °C 1018.2 hPa SSE 2.4 km/h 9.0 km/h 93 % 0.3 mm
05:28 14.6 °C 13.5 °C 1018.2 hPa NE 1.6 km/h 4.3 km/h 93 % 0.3 mm
05:33 14.6 °C 13.5 °C 1018.2 hPa NE 1.3 km/h 4.0 km/h 93 % 0.3 mm
05:38 14.6 °C 13.5 °C 1018.2 hPa NNE 0.6 km/h 3.5 km/h 93 % 0.3 mm
05:43 14.6 °C 13.5 °C 1018.2 hPa North 0.2 km/h 3.5 km/h 93 % 0.0 mm
05:48 14.5 °C 13.4 °C 1018.2 hPa Calm   2.6 km/h 93 % 0.0 mm
05:53 14.5 °C 13.4 °C 1018.2 hPa NW 0.6 km/h 5.8 km/h 93 % 0.0 mm
05:58 14.5 °C 13.6 °C 1018.2 hPa West 2.1 km/h 5.8 km/h 94 % 0.0 mm
06:03 14.5 °C 13.6 °C 1018.8 hPa WSW 2.4 km/h 4.7 km/h 94 % 0.0 mm
06:08 14.5 °C 13.6 °C 1018.8 hPa SW 2.1 km/h 4.0 km/h 94 % 0.0 mm
06:13 14.5 °C 13.6 °C 1018.8 hPa SSW 1.1 km/h 4.0 km/h 94 % 0.0 mm
06:18 14.4 °C 13.4 °C 1018.2 hPa South 0.6 km/h 4.0 km/h 94 % 0.0 mm
06:23 14.3 °C 13.3 °C 1018.2 hPa South 0.6 km/h 4.0 km/h 94 % 0.0 mm
06:28 14.2 °C 13.1 °C 1018.2 hPa South 0.3 km/h 2.1 km/h 93 % 0.0 mm
06:33 14.2 °C 13.1 °C 1018.2 hPa South 0.2 km/h 2.1 km/h 93 % 0.0 mm
06:38 14.1 °C 13.0 °C 1018.2 hPa West 0.5 km/h 3.2 km/h 93 % 0.0 mm
06:43 14.1 °C 13.0 °C 1018.2 hPa WNW 0.8 km/h 3.2 km/h 93 % 0.0 mm
06:48 14.0 °C 12.9 °C 1018.8 hPa WNW 0.3 km/h 3.2 km/h 93 % 0.0 mm
06:53 14.0 °C 13.1 °C 1018.8 hPa SSW 0.2 km/h 2.6 km/h 94 % 0.0 mm
06:58 14.1 °C 13.2 °C 1018.8 hPa SSW 0.2 km/h 2.6 km/h 94 % 0.0 mm
07:03 14.1 °C 13.2 °C 1018.8 hPa Calm     94 % 0.0 mm
07:08 14.2 °C 13.2 °C 1018.8 hPa Calm     94 % 0.0 mm
07:13 14.2 °C 13.2 °C 1018.8 hPa Calm     94 % 0.0 mm
07:18 14.2 °C 13.2 °C 1018.8 hPa Calm     94 % 0.0 mm
07:23 14.2 °C 13.2 °C 1018.8 hPa Calm     94 % 0.0 mm
07:28 14.2 °C 13.2 °C 1018.8 hPa Calm     94 % 0.0 mm
07:33 14.4 °C 13.4 °C 1019.9 hPa North 0.2 km/h 4.0 km/h 94 % 0.0 mm
07:38 14.5 °C 13.6 °C 1019.9 hPa NE 0.3 km/h 4.0 km/h 94 % 0.0 mm
07:43 14.7 °C 13.9 °C 1019.9 hPa East 0.3 km/h 3.5 km/h 95 % 0.0 mm
07:49 15.0 °C 14.1 °C 1019.9 hPa ENE 0.3 km/h 3.5 km/h 94 % 0.0 mm
07:54 15.2 °C 14.2 °C 1019.9 hPa ESE 0.8 km/h 4.0 km/h 94 % 0.0 mm
07:59 15.3 °C 14.3 °C 1019.9 hPa ESE 1.3 km/h 4.0 km/h 94 % 0.0 mm
08:04 15.5 °C 14.6 °C 1019.9 hPa SE 1.9 km/h 6.1 km/h 94 % 0.0 mm
08:09 15.6 °C 14.6 °C 1019.9 hPa SE 3.9 km/h 6.4 km/h 94 % 0.0 mm
08:10 15.7 °C 14.7 °C 1019.9 hPa SE 4.2 km/h 6.4 km/h 94 % 0.0 mm
08:15 15.8 °C 14.8 °C 1019.9 hPa SE 3.1 km/h 6.4 km/h 94 % 0.0 mm
08:20 15.8 °C 14.7 °C 1019.9 hPa SE 1.3 km/h 5.0 km/h 93 % 0.0 mm
08:25 15.9 °C 14.8 °C 1019.9 hPa ESE 0.2 km/h 3.2 km/h 93 % 0.0 mm
08:30 15.9 °C 14.8 °C 1019.9 hPa ESE 0.3 km/h 3.2 km/h 93 % 0.0 mm
08:35 15.9 °C 14.8 °C 1019.9 hPa East 0.6 km/h 3.2 km/h 93 % 0.0 mm
08:40 15.9 °C 14.6 °C 1019.9 hPa ENE 0.5 km/h 2.6 km/h 92 % 0.0 mm
08:45 16.1 °C 14.8 °C 1019.9 hPa ENE 1.1 km/h 4.0 km/h 92 % 0.0 mm
08:50 16.1 °C 14.8 °C 1019.9 hPa ENE 0.8 km/h 4.0 km/h 92 % 0.0 mm
08:55 16.2 °C 14.9 °C 1019.9 hPa WNW 0.3 km/h 2.1 km/h 92 % 0.0 mm
09:00 16.3 °C 15.0 °C 1019.9 hPa SW 0.5 km/h 2.1 km/h 92 % 0.0 mm
09:05 16.5 °C 15.0 °C 1019.9 hPa SSE 0.6 km/h 3.5 km/h 91 % 0.0 mm
09:10 16.5 °C 15.0 °C 1019.9 hPa SSE 0.6 km/h 3.5 km/h 91 % 0.0 mm
09:15 16.6 °C 15.1 °C 1019.9 hPa SSE 0.2 km/h 2.1 km/h 91 % 0.0 mm
09:20 16.6 °C 14.9 °C 1018.8 hPa SSW 0.3 km/h 4.0 km/h 90 % 0.0 mm
09:25 16.7 °C 15.1 °C 1018.8 hPa WSW 0.8 km/h 4.0 km/h 90 % 0.0 mm
09:30 16.8 °C 15.2 °C 1018.8 hPa SSW 1.6 km/h 3.5 km/h 90 % 0.0 mm
09:35 16.9 °C 15.2 °C 1018.8 hPa SSW 1.4 km/h 4.3 km/h 90 % 0.0 mm
09:40 17.0 °C 15.3 °C 1018.8 hPa South 1.9 km/h 5.5 km/h 90 % 0.0 mm
09:45 17.2 °C 15.4 °C 1018.8 hPa South 1.9 km/h 5.5 km/h 89 % 0.0 mm
09:50 17.3 °C 15.4 °C 1019.9 hPa South 1.1 km/h 3.5 km/h 89 % 0.0 mm
09:55 17.5 °C 15.7 °C 1019.9 hPa SSE 1.8 km/h 4.7 km/h 89 % 0.0 mm
10:00 17.6 °C 15.8 °C 1019.9 hPa SE 1.0 km/h 4.7 km/h 89 % 0.0 mm
10:05 17.8 °C 15.9 °C 1018.8 hPa WSW 0.2 km/h 1.8 km/h 89 % 0.0 mm
10:10 18.0 °C 16.2 °C 1018.8 hPa WSW 0.2 km/h 1.8 km/h 89 % 0.0 mm
10:15 18.2 °C 16.2 °C 1018.8 hPa SE 0.6 km/h 6.9 km/h 88 % 0.0 mm
10:20 18.3 °C 16.3 °C 1019.9 hPa SE 2.3 km/h 6.9 km/h 88 % 0.0 mm
10:25 18.4 °C 16.2 °C 1019.9 hPa SE 2.6 km/h 5.8 km/h 87 % 0.0 mm
10:30 18.5 °C 16.3 °C 1019.9 hPa SSE 1.9 km/h 5.8 km/h 87 % 0.0 mm
10:35 18.7 °C 16.3 °C 1019.9 hPa South 2.4 km/h 5.5 km/h 86 % 0.0 mm
10:40 18.8 °C 16.2 °C 1019.9 hPa South 2.7 km/h 5.5 km/h 85 % 0.0 mm
10:45 18.9 °C 16.1 °C 1019.9 hPa SSE 1.8 km/h 5.8 km/h 84 % 0.0 mm
10:50 19.1 °C 16.5 °C 1019.9 hPa SSE 2.6 km/h 5.8 km/h 85 % 0.0 mm
10:55 19.3 °C 16.3 °C 1019.9 hPa South 3.1 km/h 5.0 km/h 83 % 0.0 mm
11:00 19.3 °C 15.9 °C 1019.9 hPa SSW 1.8 km/h 6.1 km/h 81 % 0.0 mm
11:05 19.4 °C 16.2 °C 1019.9 hPa SE 3.1 km/h 8.7 km/h 82 % 0.0 mm
11:10 19.5 °C 16.2 °C 1019.9 hPa SE 4.5 km/h 8.7 km/h 81 % 0.0 mm
11:15 19.5 °C 15.9 °C 1019.9 hPa South 3.4 km/h 6.1 km/h 80 % 0.0 mm
11:16 19.5 °C 15.9 °C 1019.9 hPa South 3.2 km/h 5.5 km/h 80 % 0.0 mm
11:21 19.4 °C 15.8 °C 1019.9 hPa SW 2.6 km/h 6.4 km/h 80 % 0.0 mm
11:26 19.4 °C 15.7 °C 1019.9 hPa SSW 2.4 km/h 6.4 km/h 79 % 0.0 mm
11:31 19.4 °C 15.7 °C 1019.9 hPa SW 2.6 km/h 5.5 km/h 79 % 0.0 mm
11:36 19.5 °C 15.9 °C 1019.9 hPa SW 3.4 km/h 5.5 km/h 80 % 0.0 mm
11:41 19.9 °C 16.3 °C 1019.9 hPa SSE 3.4 km/h 6.4 km/h 80 % 0.0 mm
11:46 20.1 °C 16.3 °C 1019.9 hPa SSE 3.7 km/h 7.9 km/h 79 % 0.0 mm
11:48 20.2 °C 16.4 °C 1019.9 hPa SSE 3.9 km/h 7.9 km/h 79 % 0.0 mm
11:53 20.2 °C 16.2 °C 1019.9 hPa SE 3.7 km/h 5.8 km/h 78 % 0.0 mm
11:58 20.6 °C 16.6 °C 1019.9 hPa SSE 4.5 km/h 6.4 km/h 78 % 0.0 mm
12:03 20.7 °C 16.5 °C 1019.9 hPa South 4.5 km/h 6.4 km/h 77 % 0.0 mm
12:08 20.8 °C 16.4 °C 1019.9 hPa South 4.3 km/h 6.4 km/h 76 % 0.0 mm
12:13 21.1 °C 16.7 °C 1019.9 hPa SSE 5.0 km/h 9.0 km/h 76 % 0.0 mm
12:18 21.2 °C 16.4 °C 1018.8 hPa SSE 6.0 km/h 9.0 km/h 74 % 0.0 mm
12:23 21.5 °C 16.7 °C 1018.8 hPa SSE 5.5 km/h 8.7 km/h 74 % 0.0 mm
12:28 21.6 °C 16.3 °C 1018.8 hPa SSE 5.1 km/h 11.1 km/h 72 % 0.0 mm
12:33 21.6 °C 16.1 °C 1019.9 hPa SSE 5.3 km/h 11.1 km/h 71 % 0.0 mm
12:38 21.7 °C 16.0 °C 1019.9 hPa South 4.2 km/h 7.9 km/h 70 % 0.0 mm
12:43 22.0 °C 16.1 °C 1019.9 hPa South 2.9 km/h 6.4 km/h 69 % 0.0 mm
12:48 22.1 °C 15.7 °C 1020.9 hPa South 3.9 km/h 10.5 km/h 67 % 0.0 mm
12:54 22.1 °C 15.2 °C 1020.9 hPa SSE 4.2 km/h 16.6 km/h 65 % 0.0 mm
12:59 22.3 °C 14.7 °C 1020.9 hPa ESE 5.6 km/h 16.6 km/h 62 % 0.0 mm
13:04 22.3 °C 14.2 °C 1019.9 hPa East 6.8 km/h 15.8 km/h 60 % 0.0 mm
13:09 22.3 °C 13.6 °C 1019.9 hPa East 6.3 km/h 14.0 km/h 58 % 0.0 mm
13:11 22.3 °C 13.9 °C 1019.9 hPa East 6.1 km/h 14.0 km/h 59 % 0.0 mm
13:16 22.5 °C 13.6 °C 1019.9 hPa East 6.8 km/h 13.0 km/h 57 % 0.0 mm
13:21 22.8 °C 13.3 °C 1019.9 hPa East 8.4 km/h 17.7 km/h 55 % 0.0 mm
13:26 22.9 °C 12.8 °C 1019.9 hPa East 10.0 km/h 17.7 km/h 53 % 0.0 mm
13:31 23.1 °C 12.7 °C 1019.9 hPa East 8.0 km/h 14.0 km/h 52 % 0.0 mm
13:36 23.4 °C 13.0 °C 1019.9 hPa East 6.0 km/h 13.0 km/h 52 % 0.0 mm
13:41 23.6 °C 12.9 °C 1019.9 hPa East 6.1 km/h 13.0 km/h 51 % 0.0 mm
13:46 23.8 °C 12.4 °C 1019.9 hPa East 7.6 km/h 16.3 km/h 49 % 0.0 mm
13:51 23.6 °C 12.3 °C 1019.9 hPa East 8.4 km/h 16.3 km/h 49 % 0.0 mm
13:56 23.6 °C 12.6 °C 1019.9 hPa East 7.9 km/h 13.7 km/h 50 % 0.0 mm
14:01 23.4 °C 11.8 °C 1019.9 hPa ENE 6.1 km/h 13.0 km/h 48 % 0.0 mm
14:06 23.2 °C 11.9 °C 1019.9 hPa East 5.5 km/h 13.0 km/h 49 % 0.0 mm
14:11 23.2 °C 11.9 °C 1019.9 hPa East 5.5 km/h 13.0 km/h 49 % 0.0 mm
14:12 23.1 °C 11.8 °C 1019.9 hPa East 5.8 km/h 11.6 km/h 49 % 0.0 mm
14:17 23.2 °C 11.6 °C 1019.9 hPa ESE 6.1 km/h 11.6 km/h 48 % 0.0 mm
14:22 23.4 °C 11.8 °C 1019.9 hPa East 6.1 km/h 13.7 km/h 48 % 0.0 mm
14:27 23.6 °C 11.9 °C 1019.9 hPa East 6.1 km/h 14.0 km/h 48 % 0.0 mm
14:32 23.7 °C 11.7 °C 1019.9 hPa East 7.7 km/h 16.9 km/h 47 % 0.0 mm
14:37 24.0 °C 12.0 °C 1019.9 hPa ESE 8.0 km/h 16.9 km/h 47 % 0.0 mm
14:42 24.0 °C 11.7 °C 1019.9 hPa East 7.2 km/h 14.0 km/h 46 % 0.0 mm
14:47 23.7 °C 11.4 °C 1020.9 hPa ENE 7.6 km/h 15.4 km/h 46 % 0.0 mm
14:52 23.8 °C 11.5 °C 1020.9 hPa East 7.6 km/h 15.4 km/h 46 % 0.0 mm
14:57 23.8 °C 11.5 °C 1020.9 hPa East 8.0 km/h 19.1 km/h 46 % 0.0 mm
15:02 24.0 °C 11.3 °C 1019.9 hPa East 9.2 km/h 19.1 km/h 45 % 0.0 mm
15:07 24.0 °C 11.3 °C 1019.9 hPa ESE 7.7 km/h 16.9 km/h 45 % 0.0 mm
15:12 24.2 °C 11.5 °C 1019.9 hPa ESE 6.9 km/h 16.9 km/h 45 % 0.0 mm
15:17 24.4 °C 11.7 °C 1019.9 hPa ESE 7.7 km/h 14.0 km/h 45 % 0.0 mm
15:22 24.4 °C 11.7 °C 1019.9 hPa ESE 8.4 km/h 15.8 km/h 45 % 0.0 mm
15:27 24.3 °C 11.3 °C 1019.9 hPa East 6.6 km/h 15.8 km/h 44 % 0.0 mm
15:32 24.5 °C 11.1 °C 1019.9 hPa East 5.5 km/h 13.7 km/h 43 % 0.0 mm
15:37 24.5 °C 11.1 °C 1019.9 hPa East 6.3 km/h 13.7 km/h 43 % 0.0 mm
15:42 24.5 °C 11.1 °C 1019.9 hPa East 7.2 km/h 16.6 km/h 43 % 0.0 mm
15:47 24.6 °C 11.2 °C 1019.9 hPa East 7.1 km/h 16.6 km/h 43 % 0.0 mm
15:52 24.5 °C 11.1 °C 1019.9 hPa ENE 7.2 km/h 16.9 km/h 43 % 0.0 mm
15:57 24.4 °C 11.0 °C 1019.9 hPa ENE 7.7 km/h 16.9 km/h 43 % 0.0 mm
16:02 24.2 °C 10.8 °C 1019.9 hPa ENE 7.9 km/h 16.6 km/h 43 % 0.0 mm
16:07 24.3 °C 10.9 °C 1019.9 hPa ENE 7.4 km/h 16.6 km/h 43 % 0.0 mm
16:12 24.4 °C 11.0 °C 1019.9 hPa ENE 6.6 km/h 15.8 km/h 43 % 0.0 mm
16:17 24.5 °C 11.1 °C 1019.9 hPa East 6.8 km/h 14.0 km/h 43 % 0.0 mm
16:22 24.5 °C 11.1 °C 1019.9 hPa East 6.6 km/h 14.0 km/h 43 % 0.0 mm
16:27 24.5 °C 11.1 °C 1019.9 hPa ENE 6.6 km/h 12.6 km/h 43 % 0.0 mm
16:32 24.5 °C 11.1 °C 1019.9 hPa ENE 6.3 km/h 12.2 km/h 43 % 0.0 mm
16:37 24.5 °C 11.1 °C 1019.9 hPa ENE 5.0 km/h 12.2 km/h 43 % 0.0 mm
16:42 24.5 °C 11.1 °C 1019.9 hPa NE 4.7 km/h 13.0 km/h 43 % 0.0 mm
16:47 24.1 °C 10.4 °C 1019.9 hPa North 6.3 km/h 13.7 km/h 42 % 0.0 mm
16:52 24.3 °C 10.9 °C 1019.9 hPa North 5.8 km/h 13.7 km/h 43 % 0.0 mm
17:02 24.3 °C 10.6 °C 1019.9 hPa ESE 4.3 km/h 15.8 km/h 42 % 0.0 mm
17:07 24.3 °C 10.2 °C 1019.9 hPa East 6.1 km/h 16.9 km/h 41 % 0.0 mm
17:12 24.1 °C 10.0 °C 1019.9 hPa East 6.9 km/h 16.9 km/h 41 % 0.0 mm
17:17 24.1 °C 10.0 °C 1019.9 hPa East 6.9 km/h 16.6 km/h 41 % 0.0 mm
17:22 23.8 °C 9.8 °C 1019.9 hPa East 5.5 km/h 10.5 km/h 41 % 0.0 mm
17:27 23.5 °C 9.5 °C 1019.9 hPa East 4.5 km/h 9.3 km/h 41 % 0.0 mm
17:32 23.2 °C 9.6 °C 1020.9 hPa ENE 4.3 km/h 9.3 km/h 42 % 0.0 mm
17:37 23.0 °C 9.4 °C 1020.9 hPa ENE 4.3 km/h 9.7 km/h 42 % 0.0 mm
17:38 23.0 °C 9.4 °C 1020.9 hPa ENE 4.3 km/h 9.7 km/h 42 % 0.0 mm
17:43 22.9 °C 9.3 °C 1020.9 hPa NE 3.9 km/h 11.6 km/h 42 % 0.0 mm
17:48 22.6 °C 9.1 °C 1019.9 hPa ENE 4.8 km/h 13.7 km/h 42 % 0.0 mm
17:53 22.3 °C 8.8 °C 1019.9 hPa ENE 6.3 km/h 13.7 km/h 42 % 0.0 mm
17:58 22.1 °C 8.9 °C 1019.9 hPa ENE 6.4 km/h 12.6 km/h 43 % 0.0 mm
18:03 21.9 °C 9.1 °C 1019.9 hPa ENE 6.6 km/h 16.9 km/h 44 % 0.0 mm
18:04 21.8 °C 9.0 °C 1019.9 hPa ENE 7.1 km/h 16.9 km/h 44 % 0.0 mm
18:09 21.6 °C 8.8 °C 1019.9 hPa ENE 9.0 km/h 16.9 km/h 44 % 0.0 mm
18:12 21.5 °C 8.7 °C 1019.9 hPa NE 9.7 km/h 16.6 km/h 44 % 0.0 mm
18:17 21.3 °C 8.9 °C 1019.9 hPa ENE 8.5 km/h 15.4 km/h 45 % 0.0 mm
18:22 21.2 °C 8.8 °C 1019.9 hPa ENE 8.2 km/h 15.4 km/h 45 % 0.0 mm
18:27 21.1 °C 9.0 °C 1019.9 hPa NE 7.6 km/h 12.6 km/h 46 % 0.0 mm
18:32 21.0 °C 8.9 °C 1019.9 hPa NE 6.1 km/h 11.9 km/h 46 % 0.0 mm
18:37 20.9 °C 9.2 °C 1019.9 hPa NNE 5.5 km/h 10.5 km/h 47 % 0.0 mm
18:42 20.8 °C 9.1 °C 1019.9 hPa NNE 5.1 km/h 10.5 km/h 47 % 0.0 mm
18:47 20.7 °C 9.0 °C 1019.9 hPa NE 4.5 km/h 10.5 km/h 47 % 0.0 mm
18:52 20.7 °C 9.0 °C 1019.9 hPa NNE 5.0 km/h 15.8 km/h 47 % 0.0 mm
18:55 20.6 °C 8.9 °C 1019.9 hPa NNE 5.1 km/h 15.8 km/h 47 % 0.0 mm
19:00 20.6 °C 8.9 °C 1019.9 hPa NNE 3.7 km/h 9.7 km/h 47 % 0.0 mm
19:05 20.5 °C 8.8 °C 1019.9 hPa NNE 3.1 km/h 7.9 km/h 47 % 0.0 mm
19:10 20.4 °C 9.0 °C 1019.9 hPa NNE 3.4 km/h 9.3 km/h 48 % 0.0 mm
19:16 20.4 °C 8.7 °C 1019.9 hPa NNE 3.1 km/h 9.3 km/h 47 % 0.0 mm
19:21 20.3 °C 8.6 °C 1019.9 hPa North 4.0 km/h 9.3 km/h 47 % 0.0 mm
19:26 20.3 °C 8.6 °C 1019.9 hPa NNE 4.2 km/h 9.3 km/h 47 % 0.0 mm
19:31 20.2 °C 8.5 °C 1019.9 hPa NE 2.7 km/h 7.6 km/h 47 % 0.0 mm
19:36 20.1 °C 8.7 °C 1019.9 hPa NE 1.4 km/h 3.5 km/h 48 % 0.0 mm
19:41 19.9 °C 9.2 °C 1019.9 hPa NE 1.0 km/h 3.2 km/h 50 % 0.0 mm
19:46 19.6 °C 9.8 °C 1019.9 hPa NE 0.8 km/h 2.6 km/h 53 % 0.0 mm
19:51 19.4 °C 10.1 °C 1019.9 hPa NNE 0.5 km/h 3.2 km/h 55 % 0.0 mm
19:56 19.2 °C 10.2 °C 1019.9 hPa West 0.3 km/h 4.3 km/h 56 % 0.0 mm
20:01 19.0 °C 10.6 °C 1019.9 hPa West 0.3 km/h 4.3 km/h 58 % 0.0 mm
20:06 18.9 °C 10.7 °C 1019.9 hPa SW 1.8 km/h 4.7 km/h 59 % 0.0 mm
20:11 18.6 °C 10.9 °C 1019.9 hPa SW 3.2 km/h 5.0 km/h 61 % 0.0 mm
20:16 18.4 °C 10.7 °C 1019.9 hPa SSW 2.4 km/h 5.0 km/h 61 % 0.0 mm
20:21 18.3 °C 10.9 °C 1019.9 hPa SSW 0.8 km/h 4.3 km/h 62 % 0.0 mm
20:26 18.1 °C 10.9 °C 1019.9 hPa WSW 0.6 km/h 5.0 km/h 63 % 0.0 mm
20:31 17.9 °C 10.8 °C 1019.9 hPa West 1.3 km/h 5.0 km/h 63 % 0.0 mm
20:36 17.7 °C 11.1 °C 1020.9 hPa WNW 0.8 km/h 4.7 km/h 65 % 0.0 mm
20:41 17.6 °C 10.9 °C 1020.9 hPa Calm     65 % 0.0 mm
20:46 17.3 °C 11.1 °C 1020.9 hPa Calm     67 % 0.0 mm
20:51 17.2 °C 11.2 °C 1020.9 hPa Calm     68 % 0.0 mm
20:56 17.0 °C 11.1 °C 1020.9 hPa Calm   3.2 km/h 68 % 0.0 mm
21:01 16.7 °C 11.2 °C 1020.9 hPa NW 0.6 km/h 3.2 km/h 70 % 0.0 mm
21:06 16.5 °C 11.0 °C 1020.9 hPa NW 0.8 km/h 3.2 km/h 70 % 0.0 mm
21:11 16.4 °C 11.1 °C 1020.9 hPa NW 0.3 km/h 3.2 km/h 71 % 0.0 mm
21:16 16.2 °C 11.2 °C 1020.9 hPa Calm   2.1 km/h 72 % 0.0 mm
21:21 16.0 °C 10.9 °C 1020.9 hPa NW 0.2 km/h 2.6 km/h 72 % 0.0 mm
21:26 15.8 °C 10.9 °C 1020.9 hPa NW 0.2 km/h 2.6 km/h 73 % 0.0 mm
21:31 15.6 °C 10.8 °C 1020.9 hPa Calm   2.1 km/h 73 % 0.0 mm
21:36 15.5 °C 10.7 °C 1021.9 hPa South 0.2 km/h 2.6 km/h 73 % 0.0 mm
21:41 15.4 °C 10.8 °C 1021.9 hPa SE 0.3 km/h 3.2 km/h 74 % 0.0 mm
21:46 15.2 °C 10.6 °C 1021.9 hPa NNE 0.5 km/h 3.5 km/h 74 % 0.0 mm
21:51 15.1 °C 10.5 °C 1021.9 hPa NNW 0.5 km/h 3.5 km/h 74 % 0.0 mm
21:56 14.9 °C 10.5 °C 1021.9 hPa NW 0.5 km/h 2.6 km/h 75 % 0.0 mm
22:01 14.8 °C 10.6 °C 1021.9 hPa NE 1.0 km/h 5.0 km/h 76 % 0.0 mm
22:05 14.7 °C 10.5 °C 1021.9 hPa NNE 1.6 km/h 5.0 km/h 76 % 0.0 mm
22:10 14.6 °C 10.4 °C 1021.9 hPa WSW 1.3 km/h 4.7 km/h 76 % 0.0 mm
22:15 14.4 °C 10.6 °C 1021.9 hPa WSW 0.6 km/h 4.7 km/h 78 % 0.0 mm
22:20 14.4 °C 10.6 °C 1021.9 hPa WSW 1.0 km/h 6.4 km/h 78 % 0.0 mm
22:25 14.3 °C 10.5 °C 1021.9 hPa WSW 1.1 km/h 6.4 km/h 78 % 0.0 mm
22:30 14.2 °C 10.6 °C 1021.9 hPa WSW 0.8 km/h 5.8 km/h 79 % 0.0 mm
22:35 14.1 °C 10.5 °C 1021.9 hPa WNW 0.6 km/h 2.6 km/h 79 % 0.0 mm
22:40 14.0 °C 10.6 °C 1021.9 hPa WNW 0.5 km/h 2.6 km/h 80 % 0.0 mm
22:45 14.0 °C 10.6 °C 1021.9 hPa Calm   1.8 km/h 80 % 0.0 mm
22:50 13.9 °C 10.7 °C 1021.9 hPa Calm   1.8 km/h 81 % 0.0 mm
22:55 13.8 °C 10.6 °C 1021.9 hPa NW 0.5 km/h 4.0 km/h 81 % 0.0 mm
23:00 13.8 °C 10.8 °C 1021.9 hPa NW 1.0 km/h 4.0 km/h 82 % 0.0 mm
23:05 13.7 °C 10.7 °C 1021.9 hPa NNW 0.3 km/h 3.5 km/h 82 % 0.0 mm
23:10 13.6 °C 10.6 °C 1021.9 hPa Calm     82 % 0.0 mm
23:15 13.5 °C 10.5 °C 1021.9 hPa Calm     82 % 0.0 mm
23:20 13.4 °C 10.6 °C 1021.9 hPa Calm     83 % 0.0 mm
23:25 13.3 °C 10.5 °C 1021.9 hPa NE 0.5 km/h 5.5 km/h 83 % 0.0 mm
23:26 13.3 °C 10.5 °C 1021.9 hPa NE 0.5 km/h 5.5 km/h 83 % 0.0 mm
23:31 13.3 °C 10.5 °C 1021.9 hPa West 2.1 km/h 5.5 km/h 83 % 0.0 mm
23:36 13.2 °C 10.4 °C 1021.9 hPa WSW 2.3 km/h 5.5 km/h 83 % 0.0 mm
23:41 13.1 °C 10.3 °C 1021.9 hPa West 1.6 km/h 4.0 km/h 83 % 0.0 mm
23:46 13.0 °C 10.3 °C 1021.9 hPa WNW 1.0 km/h 4.0 km/h 84 % 0.0 mm
23:51 13.0 °C 10.3 °C 1021.9 hPa Calm     84 % 0.0 mm
23:56 12.8 °C 10.2 °C 1021.9 hPa Calm     84 % 0.0 mm
Vremenska postaja Senovo
Podatki zbrani iz Weather Underground - 3 mb

Script developed by  Jim McMurry - jmcmurry@mwt.net Adapted for the template by  Wim van der Kuil - Leuven-Template.eu

Vremenski podatki so objavljeni na:

WeatherCloud

Weather Underground

AWEKAS

HAMweather, WeatherForYou, PWS Weather

MapView

Geostik

Slovenia weather network

Oprema, ki se uporablja:

Vremenski program
Cumulus

Cumulus